User: anonymous   Login
Location: Unspecified
(0.0000°N, 0.0000°E)
Time: 21:25:12
(UTC+00:00)
Language:

Nadezhda 6 - Orbit

View from above orbital plane
View from above orbital plane
View from above satellite
View from above satellite

Ground track
Ground track

The orbit data is extracted from the following two-line orbital elements,

1 26384U 00033A   18052.09730075  .00000057  00000-0  18871-4 0  9997
2 26384  97.9827 116.7349 0014543 327.6485  32.3834 14.66407392943281
Epoch (UTC): 21 February 2018 02:20:06
Eccentricity: 0.0014543
inclination: 97.9827°
perigee height: 662 km
apogee height: 683 km
right ascension of ascending node: 116.7349°
argument of perigee: 327.6485°
revolutions per day: 14.66407392
mean anomaly at epoch: 32.3834°
orbit number at epoch: 94328

The dashed part of the orbit path shows where the satellite is in the earth's shadow,  

DLR